Location: Petruro
(41.0333°N, 14.7833°E)
Time: 14:39:49
(UTC+00:00)

UNK - Pass Details

Date: 20 June 2021
Orbit: 666 x 686 km, 98.2° (Epoch: 30 July)

Event Time Altitude Azimuth Distance (km) Brightness Sun altitude
Exits shadow 00:54:20 42° 169° (SSE) 965 4.1 -20.5°
Maximum altitude 00:55:54 87° 252° (WSW) 680 3.6 -20.4°
Drops below altitude 10° 01:00:33 10° 347° (NNW) 2,121 6.9 -19.9°
Sets 01:02:48 0° 347° (NNW) 3,043 7.9 -19.7°
